User: anonymous   Login
Location: Caltech
(34.1382°N, 118.1253°W)
Time: 12:52:06
(UTC-07:00)
Language:

SL-16 R/B - Orbit

View from above orbital plane
View from above orbital plane
View from above satellite
View from above satellite

Ground track
Ground track

The orbit data is extracted from the following two-line orbital elements,

1 28353U 04021B   16242.44560329 -.00000087  00000-0 -20829-4 0  9998
2 28353  71.0018 330.2886 0007244 277.6916  82.3384 14.14175324630914
Epoch (UTC): 29 August 2016 10:41:40
Eccentricity: 0.0007244
inclination: 71.0018°
perigee height: 840 km
apogee height: 850 km
right ascension of ascending node: 330.2886°
argument of perigee: 277.6916°
revolutions per day: 14.14175324
mean anomaly at epoch: 82.3384°
orbit number at epoch: 63091

The dashed part of the orbit path shows where the satellite is in the earth's shadow,  

DLR